YUNHAI 1-04

Satellite information

Favourite Embed

Satellite Type and Status

PAYLOADIN ORBIT

Key statistics

Satellite YUNHAI 1-04 at a glance.

Uptime

569

Days in orbit

Revolutions

≈ 14.3

Per day

Orbit

SSO

Sun Synchronous Orbit

Inclination

98.5

Latest

Satellite identification and parameters

Extended collection of information and parameters for YUNHAI 1-04.

Object identification

Identified? True

Debris? False

Object name: YUNHAI 1-04

International designator: 2023-159A

Object number (NORAD): 58073

Object ID (CCSDS): 58073

Country: PEOPLES REPUBLIC OF CHINA (PRC)

Current information (Y/N): Y

RCS size: LARGE

Orbital parameters

Period: 100.463 minutes

Inclination: 98.5349 deg

SMA: 7158.649 km

Apoapsis: 780.953 km

Periapsis: 780.075 km

RAAN: 153.5819 deg

Eccentricy: 0.0000613

Argument of periapsis: 155.8116 deg

Mean anomaly: 204.3097 deg

Mean motion: 14.33362846 rev/day

Mean motion (dot): 0.00000425 rev/day2

B* drag term: 0.00017005 1/REarth

Two-line elements (TLE)

Creation date: May 6, 2025, 3:54 a.m.

Reference frame: TEME

Reference center: EARTH

Epoch: May 5, 2025, 10:06 p.m. UTC

TLE line 0: 0 YUNHAI 1-04

TLE line 1: 1 58073U 23159A 25125.92143357 .00000425 00000-0 17005-3 0 9999

TLE line 2: 2 58073 98.5349 153.5819 0000613 155.8116 204.3097 14.33362846 81488

Live tracking on map

Real-time ground track for satellite YUNHAI 1-04.

In-orbit conjunctions

There are no conjunctions computed for YUNHAI 1-04, at the moment. Check back to stay up to date, as we update our databases every day.

Go to all conjunctions

Associated space launch

The Yunhai-1 satellite is designed for detecting environmental elements in the atmosphere and ocean, the space environment, disaster prevention and reduction, and scientific experimentation. It is made by the Shanghai Institute of Spaceflight Technology.

YUNHAI 1-04 was lifted into orbit during the mission ‘Long March 2D | Yunhai-1-04’, on board a Long March 2D space rocket.

The launch took place on Oct. 15, 2023, 12:54 a.m. from Launch Area 4 (SLS-2 / 603).

For more information about the launch, click the button.

Launch to space Long March 2D | Yunhai-1-04
Long March 2D | Yunhai-1-04

Agency: N/A

Status: Launch Successful

Launch date: Oct. 15, 2023, 12:54 a.m. UTC

Rocket: Long March 2D

Launch pad: Launch Area 4 (SLS-2 / 603)

Location: Jiuquan Satellite Launch Center, People's Republic of China

...

Latest news about this satellite

News about space launch
China launches new Yunhai remote sensing satellite

China added to its series of Yunhai remote sensing satellites late Saturday with a launch from the Gobi Desert.


Newsletter sign-up

Weekly statistics, charts and insights to help you stay on top of the space industry.